{"data":{"norad_id":64757,"intl_designator":"2025-147C","name":"STARLINK-34401","alt_names":[],"object_type":"PAYLOAD","status":"ACTIVE","operator":null,"country":"US","launch_date":"2025-07-08","launch_site_code":"AFETR","launch_vehicle":null,"mission":null,"orbit_class":"UNKNOWN","rcs_meters":null,"size_class":null,"mass_kg":null,"dimensions":null,"purposes":["comms"],"wikipedia_slug":null,"has_3d_model":false,"image_url":null,"decayed_at":null,"tle_current":{"epoch":"2026-05-25T00:04:29.695008Z","epoch_age_seconds":68622,"freshness":"FRESH","line1":"1 64757U 25147C   26145.00312147  .00010405  00000+0  31873-3 0  9998","line2":"2 64757  53.1604 247.7245 0000471 236.0429 124.0528 15.34390971 50378","mean_motion":15.34390971,"eccentricity":4.71e-5,"inclination_deg":53.1604,"raan_deg":247.7245,"arg_perigee_deg":236.0429,"mean_anomaly_deg":124.0528,"bstar":0.00031873,"rev_number":5037,"period_min":93.848310320903,"perigee_km":462.40787159018,"apogee_km":463.05228126878,"semimajor_km":6840.8670764295,"source":"CELESTRAK","updated_at":"2026-05-25T13:38:20.552538Z"}}}